This is the latest recevied weather packets stored in our database for station/object K6CED. If no packets are shown the sender has not sent any weather packets the latest 10 day(s).
| Time | Temp. | Humidity | Pressure | Rain* | Wind** | Luminosity | Snow |
|---|---|---|---|---|---|---|---|
| 1787885335 | 31.11° C | 52% | 1012.7 hPa | 0 mm | - | 0 W/m² | - |
| 1787885030 | 31.67° C | 51% | 1012.9 hPa | 0 mm | - | 0 W/m² | - |
| 1787884726 | 31.67° C | 51% | 1012.8 hPa | 0 mm | - | 0 W/m² | - |
| 1787884421 | 31.67° C | 51% | 1012.7 hPa | 0 mm | - | 0 W/m² | - |
| 1787884116 | 31.67° C | 51% | 1012.7 hPa | 0 mm | - | 1 W/m² | - |
| 1787883812 | 31.67° C | 51% | 1012.5 hPa | 0 mm | - | 2 W/m² | - |
| 1787883508 | 32.22° C | 51% | 1012.6 hPa | 0 mm | - | 3 W/m² | - |
| 1787883206 | 32.22° C | 50% | 1012.5 hPa | 0 mm | - | 6 W/m² | - |
| 1787882901 | 32.22° C | 50% | 1012.5 hPa | 0 mm | - | 10 W/m² | - |
| 1787882598 | 32.78° C | 50% | 1012.6 hPa | 0 mm | - | 15 W/m² | - |
| 1787882294 | 32.78° C | 49% | 1012.6 hPa | 0 mm | - | 21 W/m² | - |
| 1787881988 | 32.78° C | 49% | 1012.6 hPa | 0 mm | - | 27 W/m² | - |
| 1787881683 | 33.33° C | 48% | 1012.4 hPa | 0 mm | - | 33 W/m² | - |
| 1787881379 | 33.89° C | 47% | 1012.4 hPa | 0 mm | - | 41 W/m² | - |
| 1787881074 | 34.44° C | 47% | 1012.4 hPa | 0 mm | - | 52 W/m² | - |
| 1787880770 | 34.44° C | 47% | 1012.4 hPa | 0 mm | - | 60 W/m² | - |
| 1787880468 | 34.44° C | 47% | 1012.6 hPa | 0 mm | - | 68 W/m² | - |
| 1787880162 | 35° C | 46% | 1012.7 hPa | 0 mm | - | 77 W/m² | - |
| 1787879857 | 34.44° C | 46% | 1012.4 hPa | 0 mm | - | 93 W/m² | - |
| 1787879552 | 35° C | 46% | 1012.6 hPa | 0 mm | - | 95 W/m² | - |
| 1787879248 | 34.44° C | 46% | 1012.5 hPa | 0 mm | - | 103 W/m² | - |
| 1787878945 | 35.56° C | 45% | 1012.3 hPa | 0 mm | - | 96 W/m² | - |
| 1787878644 | 35.56° C | 45% | 1012.4 hPa | 0 mm | - | 120 W/m² | - |
| 1787878339 | 36.11° C | 44% | 1012.4 hPa | 0 mm | - | 136 W/m² | - |
| 1787878034 | 35.56° C | 45% | 1012.7 hPa | 0 mm | - | 146 W/m² | - |
* Rain latest hour (hover to see other rain measurements)
** Current wind speed in m/s (hover to see current wind gust speed)